{"data":{"norad_id":52484,"intl_designator":"2022-049AK","name":"STARLINK-3887","alt_names":[],"object_type":"PAYLOAD","status":"ACTIVE","operator":null,"country":"US","launch_date":"2022-05-06","launch_site_code":"AFETR","launch_vehicle":null,"mission":null,"orbit_class":"UNKNOWN","rcs_meters":null,"size_class":null,"mass_kg":null,"dimensions":null,"purposes":["comms"],"wikipedia_slug":null,"has_3d_model":false,"image_url":null,"decayed_at":null,"tle_current":{"epoch":"2026-05-25T04:45:11.183904Z","epoch_age_seconds":68685,"freshness":"FRESH","line1":"1 52484U 22049AK  26145.19804611  .00001175  00000+0  91887-4 0  9998","line2":"2 52484  53.2142  75.6589 0001259  73.2489 286.8642 15.08843220223806","mean_motion":15.0884322,"eccentricity":0.0001259,"inclination_deg":53.2142,"raan_deg":75.6589,"arg_perigee_deg":73.2489,"mean_anomaly_deg":286.8642,"bstar":9.1887e-5,"rev_number":22380,"period_min":95.437351005892,"perigee_km":538.86258682796,"apogee_km":540.60450663162,"semimajor_km":6917.8705467298,"source":"CELESTRAK","updated_at":"2026-05-25T13:38:17.156181Z"}}}